Location: Guayaquil
(2.1667°S, 79.9000°W)
Time: 01:26:33
(UTC-05:00)

N. Korean satellite - Visible Passes

Search period start: 20 October 2019 00:00
Search period end: 30 October 2019 00:00
Orbit: 455 x 508 km, 97.2° (Epoch: 19 October)

Date Brightness Start Highest point End Pass type
(mag) Time Alt. Az. Time Alt. Az. Time Alt. Az.
22 Oct 8.7 05:27:40 10° NE 05:31:03 34° E 05:34:28 10° SSE visible
23 Oct 10.2 05:03:51 10° ENE 05:05:50 14° ESE 05:07:51 10° SE visible
26 Oct 9.3 05:20:06 10° NE 05:23:14 26° ESE 05:26:23 10° SSE visible
26 Oct 10.2 18:40:59 10° SW 18:42:41 13° WSW 18:44:23 10° WNW visible
27 Oct 10.6 04:57:13 10° E 04:58:01 11° ESE 04:58:50 10° ESE visible
29 Oct 7.7 05:37:01 10° NNE 05:40:38 51° ESE 05:44:15 10° S visible
